[[{"header":{"parameterUnit":"m.s-1","parameterCategory":2,"la1":30.2991,"la2":30.254,"lo1":-89.0895,"lo2":-89.0444,"dy":0.0017,"dx":0.0017,"nx":28,"ny":28,"refTime":"2025-08-03T09:00:00:Z","depth":"0","parameterNumber":2,"parameterNumberName":"U-component_of_CURRENTS"},"data":[0,0,0,0,0,0,0,0,0,0,0,0,0,0,0,0,0,0,0,0,0,0,0,0,0,0,0,0,0,0,0,0,0,0,0,0,0,0,0,0,0,0,0,0,0,0,0,0,0,0,0,0,0,0,0,0,0,0,0.2313,0.2314,0,0.2349,0.235,0.235,0.2313,0.2312,0.231,0.2309,0.2294,0.2295,0.2295,0,0,0,0,0,0,0,0,0,0,0,0,0,0.2332,0.2331,0.2313,0.2314,0.2314,0.2349,0.235,0.235,0.2313,0.2312,0.231,0.2309,0.2294,0.2294,0.2295,0,0,0,0,0,0,0,0,0,0,0,0,0,0.2339,0.2331,0.2313,0.2302,0.2302,0.2349,0.235,0.235,0.2313,0.2312,0.231,0.2308,0.2293,0.2294,0.2295,0.2339,0,0,0.2299,0.2299,0,0,0,0,0,0,0,0,0.2339,0.2338,0.2303,0.2303,0.2303,0.2327,0.2351,0.2344,0.2314,0.2306,0.2309,0.2307,0.2303,0.2303,0.2311,0.2338,0.2338,0.2299,0.23,0.23,0.23,0,0,0,0,0,0,0,0.2338,0.2337,0.2325,0.2304,0.2304,0.2337,0.2334,0.235,0.2312,0.2307,0.2305,0.2313,0.2302,0.2311,0.2311,0.2337,0.2299,0.23,0.2301,0.2301,0.2436,0.2439,0,0,0,0,0,0,0.2334,0.2336,0.2324,0.2326,0.2319,0.2337,0.2335,0.2319,0.2313,0.2311,0.2315,0.2312,0.231,0.2309,0.231,0.2425,0.23,0.2301,0.2302,0.2433,0.2437,0.244,0,0,0,0,0,0,0.2334,0.2332,0.2323,0.2336,0.2337,0.2338,0.2322,0.2321,0.2332,0.232,0.2316,0.2327,0.2308,0.2308,0.2332,0.2421,0.2302,0.2303,0.243,0.2434,0.2438,0.2613,0,0,0,0,0,0,0.2334,0.2331,0.2326,0.2334,0.2336,0.2366,0.2324,0.2323,0.2341,0.2337,0.233,0.2326,0.2307,0.2331,0.2333,0.242,0.2303,0.2426,0.2432,0.2437,0.2604,0.2623,0.2639,0,0,0,0,0,0.2334,0.2338,0.2325,0.2325,0.2326,0.2369,0.2374,0.2367,0.2343,0.2366,0.2353,0.2326,0.2368,0.2333,0.2336,0.2426,0.2423,0.243,0.2436,0.2596,0.2619,0.2639,0,0,0,0,0,0,0.2354,0.2336,0.2321,0.232,0.2349,0.2363,0.2385,0.238,0.239,0.2382,0.2354,0.2352,0.2413,0.2387,0.2349,0.2479,0.2396,0.2404,0.2517,0.2538,0.2556,0.2571,0.2304,0,0,0,0,0,0.2355,0.2341,0.2352,0.2356,0.237,0.238,0.2396,0.24,0.2408,0.241,0.2406,0.241,0.2446,0.246,0.2475,0.2539,0.2528,0.26,0.2618,0.2633,0.2647,0.2723,0.275,0.2461,0.2461,0.2461,0,0,0.2363,0.2353,0.2346,0.2359,0.2374,0.2433,0.2385,0.2424,0.2489,0.2409,0.2481,0.2471,0.2474,0.2552,0.2579,0.2539,0.2707,0.2642,0.2655,0.2661,0.2733,0.2761,0.2787,0.2466,0.2465,0.2464,0,0,0.2395,0.2369,0.2381,0.2416,0.245,0.2473,0.2489,0.2518,0.2545,0.2604,0.2581,0.2616,0.2649,0.2687,0.2707,0.2831,0.2798,0.284,0.2952,0.3027,0.3051,0.3073,0.3084,0.3105,0.2852,0.2853,0.2853,0,0.2406,0.2429,0.2402,0.245,0.2501,0.2499,0.2573,0.2616,0.2653,0.2693,0.2645,0.2723,0.2726,0.2843,0.2893,0.2879,0.2886,0.2873,0.3053,0.3074,0.3093,0.3099,0.312,0.2862,0.2861,0.286,0.2859,0,0.2472,0.2501,0.2526,0.2579,0.2629,0.2697,0.2755,0.2808,0.2827,0.2862,0.2953,0.2944,0.2983,0.3013,0.2997,0.315,0.3098,0.3067,0.3002,0.3133,0.313,0.3149,0.2875,0.2872,0.2869,0.2867,0,0,0.2477,0.2553,0.2569,0.2631,0.2712,0.2772,0.2882,0.2993,0.306,0.3099,0.3181,0.3266,0.3229,0.3249,0.3235,0.3308,0.3453,0.3258,0.3258,0.3275,0.3586,0.3346,0.3342,0.3463,0.3468,0.3471,0.3524,0,0.2551,0.2679,0.2691,0.284,0.2925,0.2964,0.3065,0.3159,0.3205,0.3277,0.3308,0.3363,0.3334,0.3337,0.3422,0.3433,0.3514,0.3439,0.3449,0.3449,0.3226,0.336,0.3134,0.3145,0.3542,0.3545,0.3547,0,0.263,0.2711,0.2864,0.299,0.3027,0.3103,0.3254,0.3339,0.3434,0.3457,0.3509,0.3495,0.3601,0.3534,0.3662,0.3615,0.3632,0.3636,0.3638,0.3366,0.3245,0.308,0.3164,0.3051,0.3576,0.3573,0.3571,0,0.2706,0.2838,0.2973,0.3025,0.3158,0.3224,0.3291,0.3395,0.3461,0.3551,0.3566,0.3666,0.3675,0.3754,0.3731,0.3728,0.3824,0.3813,0.3618,0.3598,0.3379,0.3331,0.3356,0.3937,0.3937,0.3937,0.3937,0,0.2805,0.2908,0.3012,0.3096,0.3235,0.3291,0.3411,0.348,0.3544,0.3612,0.3645,0.3674,0.3738,0.3763,0.3782,0.372,0.3868,0.3658,0.3616,0.3426,0.3384,0.3246,0.323,0.3939,0.3938,0.3938,0.3938,0,0.2873,0.2944,0.3095,0.3237,0.3273,0.3372,0.3457,0.3527,0.3577,0.3647,0.3669,0.3714,0.3721,0.3723,0.3799,0.3731,0.3588,0.367,0.3392,0.3314,0.2989,0.299,0.2869,0.2814,0.3491,0.3485,0.3481,0,0.2923,0.3017,0.3187,0.3254,0.3309,0.3424,0.3484,0.3549,0.3593,0.3657,0.3684,0.3686,0.3643,0.3592,0.3478,0.3413,0.3392,0.3169,0.3129,0.2951,0.2927,0.2861,0.2824,0.2921,0.2913,0.2906,0.29,0,0.3033,0.309,0.3214,0.3332,0.3412,0.348,0.3551,0.3574,0.3628,0.3646,0.3613,0.3566,0.3435,0.3202,0.3059,0.3016,0.2959,0.3014,0.2952,0.2578,0.2397,0.2325,0.2875,0.2836,0.2843,0.2847,0.2851,0.2853,0.3107,0.3197,0.3329,0.3415,0.3484,0.3487,0.347,0.3498,0.3499,0.3397,0.3476,0.3258,0.3004,0.2729,0.2664,0.2333,0.2493,0.2237,0.2284,0.2258,0.2103,0.2454,0.2276,0.2279,0.2282,0.2284,0.2286,0,0.3204,0.3279,0.3385,0.346,0.3456,0.348,0.3472,0.3366,0.3264,0.3166,0.3056,0.2654,0.2364,0.2146,0.1793,0.1643,0.1635,0.1588,0.1519,0.1553,0.1962,0.183,0.1397,0.1397,0.1397,0.1397,0.1397,0.1397,0.3273,0.3378,0.3397,0.3384,0.3384,0.3262,0.319,0.3025,0.2889,0.2514,0.2198,0.2061,0.1812,0.147,0.1192,0.1161,0.1142,0.0976,0.1126,0.1454,0.1521,0.1585,0.1457,0.0954,0.0953,0.061,0.0607,0.0605]},{"header":{"parameterUnit":"m.s-1","parameterCategory":2,"la1":30.2991,"la2":30.254,"lo1":-89.0895,"lo2":-89.0444,"dy":0.0017,"dx":0.0017,"nx":28,"ny":28,"refTime":"2025-08-03T09:00:00:Z","depth":"0","parameterNumber":3,"parameterNumberName":"V-component_of_CURRENTS"},"data":[0,0,0,0,0,0,0,0,0,0,0,0,0,0,0,0,0,0,0,0,0,0,0,0,0,0,0,0,0,0,0,0,0,0,0,0,0,0,0,0,0,0,0,0,0,0,0,0,0,0,0,0,0,0,0,0,0,0,0.0313,0.0313,0,0.0343,0.0343,0.0343,0.0326,0.0325,0.0324,0.0324,0.0345,0.0346,0.0347,0,0,0,0,0,0,0,0,0,0,0,0,0,0.0252,0.0253,0.0313,0.0313,0.0314,0.0343,0.0343,0.0343,0.0326,0.0325,0.0324,0.0324,0.0345,0.0346,0.0347,0,0,0,0,0,0,0,0,0,0,0,0,0,0.0277,0.0253,0.0313,0.0311,0.0312,0.0343,0.0343,0.0343,0.0326,0.0325,0.0324,0.0323,0.0344,0.0346,0.0347,0.0373,0,0,0.0352,0.0353,0,0,0,0,0,0,0,0,0.0275,0.0278,0.0311,0.0312,0.0312,0.0333,0.033,0.0354,0.0326,0.0317,0.0324,0.0323,0.0343,0.0344,0.0347,0.0374,0.0375,0.0352,0.0353,0.0354,0.0354,0,0,0,0,0,0,0,0.0274,0.0277,0.0321,0.0312,0.0313,0.0314,0.0316,0.0334,0.0331,0.0318,0.0317,0.0326,0.0342,0.0346,0.0348,0.0375,0.0352,0.0354,0.0355,0.0355,0.0445,0.0447,0,0,0,0,0,0,0.0277,0.0276,0.032,0.0322,0.0295,0.0316,0.0318,0.0324,0.0331,0.0332,0.0327,0.0326,0.0343,0.0346,0.0348,0.0388,0.0354,0.0355,0.0356,0.0444,0.0446,0.0447,0,0,0,0,0,0,0.0276,0.0281,0.0319,0.0303,0.0308,0.0318,0.0325,0.0325,0.0331,0.0339,0.0339,0.0333,0.0343,0.0346,0.0367,0.0388,0.0356,0.0358,0.0442,0.0444,0.0446,0.0461,0,0,0,0,0,0,0.0274,0.028,0.0284,0.0303,0.0309,0.0344,0.0326,0.0326,0.0339,0.0337,0.0345,0.0345,0.0342,0.0365,0.0369,0.0389,0.0359,0.044,0.0443,0.0446,0.0459,0.0463,0.0467,0,0,0,0,0,0.0272,0.0286,0.0284,0.029,0.0315,0.0345,0.0348,0.035,0.034,0.035,0.0351,0.0345,0.0385,0.0367,0.0371,0.0393,0.0439,0.0442,0.0445,0.0457,0.0463,0.0467,0,0,0,0,0,0,0.0261,0.0286,0.0284,0.0304,0.0325,0.0344,0.0356,0.0356,0.0365,0.0361,0.0359,0.0361,0.0388,0.0394,0.0375,0.043,0.0413,0.0418,0.0421,0.0426,0.043,0.0456,0.036,0,0,0,0,0,0.0262,0.0277,0.0301,0.0317,0.033,0.0342,0.0354,0.0357,0.037,0.0372,0.0377,0.0389,0.0407,0.0417,0.0432,0.0462,0.0494,0.0482,0.0487,0.049,0.0516,0.0613,0.0629,0.0458,0.0458,0.0458,0,0,0.0261,0.0279,0.0286,0.0316,0.033,0.0351,0.0346,0.037,0.0384,0.0376,0.0393,0.0403,0.0418,0.0447,0.0461,0.0453,0.0544,0.0494,0.0497,0.0522,0.0618,0.0635,0.065,0.046,0.046,0.0459,0,0,0.0275,0.0286,0.0304,0.0324,0.0353,0.0363,0.0372,0.0394,0.04,0.0423,0.0421,0.0452,0.0468,0.0493,0.0505,0.055,0.0563,0.0547,0.0592,0.0684,0.0699,0.0713,0.0722,0.0737,0.0551,0.0551,0.0551,0,0.027,0.0294,0.0315,0.034,0.0354,0.0369,0.0389,0.0405,0.0428,0.0451,0.0431,0.0499,0.0498,0.0562,0.0566,0.0562,0.0591,0.0563,0.0691,0.0706,0.072,0.0726,0.0742,0.0552,0.0552,0.0552,0.0552,0,0.0302,0.0315,0.0331,0.036,0.0382,0.0403,0.0429,0.0451,0.0457,0.0482,0.0544,0.0559,0.0608,0.0606,0.0591,0.0691,0.0667,0.0682,0.0676,0.0738,0.074,0.0756,0.0554,0.0553,0.0553,0.0553,0,0,0.0298,0.034,0.0344,0.0358,0.039,0.0416,0.0446,0.0493,0.0538,0.0564,0.0637,0.066,0.0689,0.0708,0.0712,0.0781,0.0865,0.077,0.0774,0.0775,0.1021,0.0938,0.0947,0.091,0.0915,0.0918,0.0961,0,0.0309,0.0347,0.0368,0.04,0.0419,0.0445,0.048,0.0528,0.057,0.0647,0.0697,0.0762,0.0722,0.0756,0.0822,0.0881,0.092,0.0849,0.0965,0.0968,0.0887,0.097,0.0921,0.0953,0.0978,0.0981,0.0983,0,0.033,0.0351,0.038,0.0424,0.0438,0.0462,0.0536,0.0572,0.0679,0.0719,0.0807,0.0853,0.0956,0.0916,0.105,0.101,0.1011,0.1038,0.1041,0.0983,0.092,0.0908,0.0983,0.094,0.1008,0.1006,0.1004,0,0.0322,0.036,0.038,0.0393,0.0447,0.0474,0.0508,0.0598,0.0663,0.0785,0.0869,0.0976,0.107,0.1123,0.1152,0.1121,0.1292,0.1257,0.1169,0.1159,0.1153,0.1137,0.1208,0.1343,0.1343,0.1343,0.1342,0,0.0328,0.0348,0.0378,0.0394,0.0444,0.0477,0.056,0.0613,0.0732,0.0859,0.0915,0.1052,0.1141,0.1237,0.1218,0.1253,0.1344,0.1201,0.1196,0.1147,0.113,0.1119,0.1094,0.1344,0.1344,0.1343,0.1343,0,0.0337,0.0343,0.038,0.0426,0.0443,0.0486,0.059,0.0671,0.0762,0.0939,0.0991,0.116,0.1288,0.1316,0.1421,0.1351,0.1343,0.1339,0.1226,0.1207,0.1054,0.1031,0.1116,0.1125,0.126,0.1259,0.1258,0,0.0351,0.0365,0.0409,0.0442,0.0467,0.0531,0.0596,0.0681,0.0789,0.1019,0.1128,0.1289,0.1427,0.1502,0.1428,0.1371,0.1334,0.124,0.1173,0.1065,0.1038,0.1029,0.1031,0.1145,0.1143,0.1141,0.114,0,0.0398,0.0407,0.0444,0.0495,0.0551,0.063,0.0731,0.0817,0.0965,0.1118,0.1349,0.1468,0.1529,0.1498,0.1379,0.1318,0.1204,0.1201,0.1175,0.1032,0.0953,0.095,0.1032,0.1126,0.1127,0.1128,0.1129,0.113,0.0448,0.048,0.0519,0.0571,0.064,0.0745,0.0833,0.0969,0.1144,0.139,0.1483,0.1648,0.1537,0.1392,0.1304,0.1061,0.1116,0.0971,0.0969,0.0982,0.0958,0.0954,0.099,0.099,0.0991,0.0991,0.0992,0,0.0512,0.0545,0.06,0.0676,0.077,0.0787,0.0945,0.1054,0.1274,0.1462,0.1642,0.1607,0.1472,0.1293,0.0975,0.085,0.0842,0.0798,0.0805,0.0834,0.0909,0.0868,0.0777,0.0777,0.0777,0.0777,0.0777,0.0777,0.0556,0.061,0.0624,0.0772,0.0843,0.0983,0.1077,0.1235,0.1376,0.1552,0.1592,0.162,0.1436,0.1014,0.0762,0.0716,0.0709,0.0652,0.07,0.0742,0.0759,0.0775,0.0733,0.0615,0.0615,0.0631,0.0631,0.0631]}],[{"header":{"parameterUnit":"m.s-1","parameterCategory":2,"la1":30.2991,"la2":30.254,"lo1":-89.0895,"lo2":-89.0444,"dy":0.0017,"dx":0.0017,"nx":28,"ny":28,"refTime":"2025-08-03T09:00:00:Z","depth":"2","parameterNumber":2,"parameterNumberName":"U-component_of_CURRENTS"},"data":[0,0,0,0,0,0,0,0,0,0,0,0,0,0,0,0,0,0,0,0,0,0,0,0,0,0,0,0,0,0,0,0,0,0,0,0,0,0,0,0,0,0,0,0,0,0,0,0,0,0,0,0,0,0,0,0,0,0,0.1645,0.1645,0,0.1607,0.1606,0.1606,0.1583,0.1583,0.1583,0.1583,0.1593,0.1593,0.1593,0,0,0,0,0,0,0,0,0,0,0,0,0,0.1662,0.1662,0.1645,0.1645,0.1645,0.1607,0.1606,0.1605,0.1583,0.1583,0.1583,0.1583,0.1593,0.1593,0.1593,0,0,0,0,0,0,0,0,0,0,0,0,0,0.164,0.1662,0.1645,0.1631,0.1629,0.1607,0.1606,0.1605,0.1583,0.1583,0.1583,0.1584,0.1593,0.1593,0.1593,0.1591,0,0,0.1594,0.1594,0,0,0,0,0,0,0,0,0.1642,0.1639,0.1633,0.1632,0.163,0.1602,0.1615,0.1604,0.1583,0.1598,0.1583,0.1584,0.1602,0.1601,0.159,0.1592,0.1592,0.1594,0.1594,0.1594,0.1594,0,0,0,0,0,0,0,0.1643,0.1641,0.1628,0.1633,0.1631,0.1613,0.161,0.1612,0.1599,0.1597,0.1596,0.1595,0.1601,0.1589,0.159,0.1592,0.1594,0.1594,0.1594,0.1594,0.1673,0.1675,0,0,0,0,0,0,0.1654,0.1642,0.1629,0.1627,0.1639,0.1613,0.161,0.1609,0.1598,0.1596,0.1595,0.1594,0.1589,0.159,0.159,0.1634,0.1594,0.1594,0.1594,0.1671,0.1674,0.1676,0,0,0,0,0,0,0.1654,0.1653,0.1631,0.1635,0.1632,0.1613,0.1612,0.1608,0.1605,0.1596,0.1595,0.1597,0.1589,0.159,0.1612,0.1633,0.1594,0.1595,0.1669,0.1672,0.1675,0.1693,0,0,0,0,0,0,0.1655,0.1653,0.1661,0.1636,0.1632,0.1633,0.1612,0.1607,0.1605,0.1604,0.1598,0.1598,0.1589,0.1612,0.1612,0.1632,0.1595,0.1667,0.167,0.1674,0.169,0.1696,0.1701,0,0,0,0,0,0.1656,0.1662,0.1662,0.1661,0.1642,0.1634,0.1631,0.1616,0.1605,0.1612,0.1612,0.1599,0.1636,0.1613,0.1613,0.1634,0.1665,0.1669,0.1674,0.1687,0.1695,0.1701,0,0,0,0,0,0,0.1679,0.166,0.1659,0.1662,0.1659,0.1632,0.1632,0.1623,0.1624,0.1628,0.1613,0.1614,0.1643,0.1644,0.1619,0.1673,0.1653,0.1657,0.1663,0.167,0.1676,0.1736,0.1595,0,0,0,0,0,0.1688,0.1684,0.1672,0.1678,0.1675,0.1656,0.1652,0.1648,0.1643,0.1642,0.1637,0.1646,0.166,0.1668,0.168,0.1702,0.1737,0.1723,0.1729,0.1733,0.1787,0.1875,0.1894,0.169,0.169,0.169,0,0,0.1693,0.1689,0.1683,0.1682,0.1673,0.1655,0.1654,0.1657,0.1658,0.1646,0.1651,0.1664,0.1672,0.1699,0.1714,0.1702,0.1796,0.1739,0.1742,0.1795,0.1882,0.1902,0.1919,0.1693,0.1693,0.1692,0,0,0.1699,0.1703,0.1698,0.1681,0.1681,0.1675,0.168,0.1668,0.1684,0.1697,0.1694,0.175,0.1732,0.1773,0.1782,0.1839,0.1824,0.1812,0.1887,0.1971,0.1989,0.2005,0.2012,0.2029,0.1815,0.1815,0.1815,0,0.1708,0.1694,0.1698,0.1677,0.1667,0.168,0.1669,0.168,0.1683,0.1718,0.1709,0.1765,0.1787,0.1843,0.1876,0.1857,0.1864,0.1847,0.1979,0.1996,0.2013,0.2017,0.2036,0.1816,0.1816,0.1816,0.1816,0,0.1688,0.1674,0.1668,0.1644,0.1647,0.1639,0.1655,0.1695,0.1721,0.1728,0.1807,0.1851,0.1901,0.1905,0.1911,0.2028,0.1977,0.1971,0.1958,0.2035,0.2032,0.2052,0.1818,0.1818,0.1817,0.1817,0,0,0.1695,0.1662,0.1652,0.1652,0.1628,0.1641,0.1675,0.1723,0.1769,0.1804,0.1879,0.1948,0.1991,0.2016,0.2033,0.2125,0.2242,0.2105,0.2108,0.2106,0.2362,0.2173,0.2174,0.2238,0.2243,0.2247,0.229,0,0.1675,0.1638,0.1634,0.1618,0.1602,0.1642,0.1673,0.1727,0.1781,0.1858,0.1953,0.2014,0.2015,0.2068,0.2159,0.225,0.2304,0.2228,0.2297,0.23,0.2119,0.2197,0.2004,0.2014,0.2308,0.2312,0.2314,0,0.1628,0.1626,0.1601,0.1631,0.1635,0.1652,0.1753,0.1787,0.1893,0.1945,0.2033,0.207,0.2233,0.2221,0.2403,0.2341,0.237,0.2415,0.2416,0.2266,0.2149,0.2001,0.2038,0.2346,0.2344,0.2341,0.2339,0,0.1614,0.1598,0.1599,0.1584,0.1619,0.1687,0.1744,0.1827,0.189,0.2025,0.2089,0.2207,0.2334,0.2408,0.2497,0.2464,0.2665,0.2619,0.2449,0.2432,0.2305,0.2268,0.2735,0.2735,0.2735,0.2734,0.2734,0,0.1565,0.1584,0.1609,0.1604,0.1671,0.1707,0.1804,0.1881,0.1993,0.2058,0.2149,0.223,0.2403,0.2502,0.2534,0.2552,0.2686,0.2497,0.2459,0.2292,0.2256,0.2588,0.257,0.2736,0.2736,0.2735,0.2735,0,0.1569,0.1549,0.157,0.1625,0.1656,0.1723,0.1841,0.1918,0.2018,0.2128,0.2182,0.2328,0.2441,0.2521,0.2672,0.2606,0.2634,0.2583,0.2333,0.2264,0.2322,0.2306,0.2411,0.2406,0.2401,0.2397,0.2393,0,0.1573,0.1566,0.1592,0.1625,0.1675,0.1769,0.1839,0.1933,0.1992,0.2149,0.2202,0.2349,0.2385,0.2493,0.2439,0.2409,0.2522,0.2185,0.2103,0.2351,0.2305,0.2295,0.2285,0.1922,0.1915,0.191,0.1905,0,0.1614,0.1612,0.1641,0.1669,0.1736,0.1794,0.1894,0.1915,0.2019,0.2094,0.2179,0.2224,0.2276,0.2167,0.2115,0.2065,0.2175,0.2058,0.2464,0.2004,0.1886,0.184,0.1848,0.1854,0.1859,0.1863,0.1866,0.1868,0.1673,0.1681,0.1678,0.1705,0.178,0.1805,0.1834,0.189,0.1928,0.1961,0.2056,0.2035,0.2022,0.1819,0.1731,0.1651,0.1794,0.1716,0.1737,0.1764,0.167,0.1547,0.1431,0.1434,0.1436,0.1438,0.144,0,0.1689,0.1689,0.1721,0.1719,0.1776,0.1818,0.1858,0.1825,0.1807,0.1802,0.1821,0.16,0.1488,0.1477,0.1251,0.1178,0.121,0.1139,0.1198,0.1247,0.1291,0.1178,0.0807,0.0805,0.0803,0.0801,0,0,0.1701,0.1681,0.1636,0.1659,0.172,0.1713,0.1714,0.1666,0.1618,0.1476,0.14,0.1463,0.1443,0.1139,0.1054,0.0908,0.1086,0.0857,0.1365,0.1488,0.1531,0.1615,0.1492,0,0,0,0,0]},{"header":{"parameterUnit":"m.s-1","parameterCategory":2,"la1":30.2991,"la2":30.254,"lo1":-89.0895,"lo2":-89.0444,"dy":0.0017,"dx":0.0017,"nx":28,"ny":28,"refTime":"2025-08-03T09:00:00:Z","depth":"2","parameterNumber":3,"parameterNumberName":"V-component_of_CURRENTS"},"data":[0,0,0,0,0,0,0,0,0,0,0,0,0,0,0,0,0,0,0,0,0,0,0,0,0,0,0,0,0,0,0,0,0,0,0,0,0,0,0,0,0,0,0,0,0,0,0,0,0,0,0,0,0,0,0,0,0,0,0.0078,0.0078,0,0.0075,0.0075,0.0074,0.0074,0.0074,0.0074,0.0074,0.0087,0.0087,0.0088,0,0,0,0,0,0,0,0,0,0,0,0,0,0.0058,0.0059,0.0078,0.0078,0.0078,0.0075,0.0075,0.0074,0.0074,0.0074,0.0074,0.0074,0.0087,0.0087,0.0088,0,0,0,0,0,0,0,0,0,0,0,0,0,0.0062,0.0059,0.0078,0.0078,0.0078,0.0075,0.0075,0.0074,0.0074,0.0074,0.0074,0.0074,0.0087,0.0087,0.0088,0.0088,0,0,0.0089,0.0089,0,0,0,0,0,0,0,0,0.0062,0.0062,0.0078,0.0078,0.0078,0.0075,0.0072,0.008,0.0074,0.0075,0.0074,0.0074,0.0085,0.0085,0.0084,0.0089,0.0089,0.0089,0.0089,0.0089,0.009,0,0,0,0,0,0,0,0.0061,0.0062,0.0076,0.0078,0.0078,0.0069,0.007,0.0073,0.0079,0.0075,0.0075,0.0075,0.0085,0.0083,0.0084,0.009,0.0089,0.0089,0.009,0.009,0.012,0.0121,0,0,0,0,0,0,0.0064,0.0062,0.0077,0.0076,0.007,0.0069,0.007,0.0076,0.0079,0.008,0.0075,0.0075,0.0082,0.0084,0.0085,0.0099,0.0089,0.009,0.009,0.012,0.012,0.0121,0,0,0,0,0,0,0.0064,0.0065,0.0077,0.0069,0.007,0.007,0.0076,0.0075,0.0076,0.0079,0.008,0.0076,0.0083,0.0084,0.0094,0.0099,0.009,0.009,0.0119,0.012,0.0121,0.012,0,0,0,0,0,0,0.0063,0.0065,0.0069,0.007,0.0071,0.0081,0.0076,0.0075,0.0076,0.0076,0.008,0.0081,0.0083,0.0093,0.0094,0.01,0.0091,0.0118,0.0119,0.012,0.0119,0.0121,0.0122,0,0,0,0,0,0.0062,0.0068,0.007,0.0071,0.0076,0.0082,0.0082,0.0081,0.0076,0.008,0.0083,0.0081,0.0101,0.0094,0.0095,0.0101,0.0118,0.0119,0.012,0.0119,0.012,0.0122,0,0,0,0,0,0,0.0058,0.0069,0.007,0.0078,0.0083,0.0082,0.0084,0.0082,0.0085,0.0086,0.0086,0.0087,0.0099,0.0102,0.0094,0.0114,0.011,0.0112,0.0109,0.011,0.0111,0.0137,0.0091,0,0,0,0,0,0.006,0.007,0.0076,0.0082,0.0085,0.0084,0.0085,0.0086,0.0089,0.009,0.0092,0.0097,0.0105,0.0109,0.0116,0.0124,0.0143,0.0131,0.0132,0.0133,0.0155,0.0208,0.0217,0.0125,0.0125,0.0125,0,0,0.0058,0.0066,0.007,0.0082,0.0084,0.009,0.0085,0.009,0.0092,0.0091,0.0095,0.0102,0.0109,0.0119,0.0125,0.0122,0.0158,0.0134,0.0135,0.0158,0.0211,0.022,0.0228,0.0126,0.0126,0.0125,0,0,0.0063,0.007,0.0081,0.0088,0.0096,0.0095,0.0097,0.01,0.01,0.0103,0.0107,0.0128,0.0122,0.0143,0.0148,0.0165,0.0165,0.0153,0.0178,0.0228,0.0237,0.0244,0.0235,0.0242,0.0152,0.0152,0.0152,0,0.006,0.0078,0.0083,0.0097,0.0106,0.0098,0.0112,0.0105,0.0109,0.0135,0.0106,0.0147,0.0141,0.0185,0.0177,0.017,0.0176,0.0167,0.0231,0.0239,0.0247,0.0236,0.0244,0.0152,0.0152,0.0152,0.0152,0,0.0077,0.009,0.0096,0.0112,0.0122,0.0131,0.013,0.0141,0.0134,0.0148,0.0187,0.018,0.022,0.0204,0.0185,0.024,0.0214,0.0226,0.0227,0.0257,0.0242,0.025,0.0152,0.0152,0.0152,0.0152,0,0,0.0072,0.0102,0.0105,0.0128,0.0135,0.0152,0.0159,0.0192,0.0238,0.0219,0.0282,0.0267,0.0286,0.0294,0.0281,0.0304,0.0328,0.0277,0.028,0.0267,0.0394,0.034,0.0343,0.0349,0.0351,0.0353,0.0344,0,0.0084,0.0119,0.0128,0.0161,0.0183,0.0195,0.0218,0.025,0.0273,0.0328,0.0331,0.0378,0.031,0.0337,0.0345,0.0365,0.0358,0.0327,0.0369,0.037,0.032,0.0356,0.0348,0.0338,0.0352,0.0354,0.0355,0,0.0098,0.0124,0.0159,0.022,0.0234,0.0247,0.0326,0.0349,0.042,0.0447,0.049,0.0502,0.0536,0.0468,0.0494,0.0475,0.0426,0.0412,0.0412,0.0379,0.0335,0.0321,0.0352,0.0369,0.0367,0.0366,0.0365,0,0.0108,0.0151,0.0184,0.0198,0.0255,0.0284,0.0316,0.0393,0.0453,0.0533,0.0604,0.0632,0.0676,0.064,0.0584,0.0551,0.0601,0.0564,0.0455,0.0448,0.0462,0.0453,0.0564,0.0564,0.0564,0.0564,0.0564,0,0.0122,0.0149,0.0192,0.0211,0.0285,0.0311,0.0407,0.0455,0.0547,0.0665,0.0666,0.0754,0.0726,0.0743,0.0646,0.0585,0.0652,0.0473,0.0463,0.0454,0.0444,0.0499,0.0492,0.0564,0.0564,0.0564,0.0564,0,0.0125,0.0144,0.0199,0.0262,0.0288,0.0343,0.045,0.0542,0.0612,0.0764,0.0797,0.0876,0.0901,0.0836,0.0807,0.0692,0.0625,0.0566,0.0522,0.0506,0.0406,0.0399,0.0457,0.0456,0.0455,0.0454,0.0453,0,0.013,0.0154,0.0238,0.029,0.0314,0.0396,0.0479,0.0561,0.0692,0.0844,0.0953,0.0996,0.104,0.0952,0.079,0.0627,0.0612,0.0498,0.0435,0.0422,0.0406,0.04,0.0395,0.043,0.0429,0.0429,0.0428,0,0.0157,0.0182,0.0241,0.0344,0.0424,0.0533,0.0666,0.0769,0.0912,0.1014,0.1163,0.1177,0.109,0.0948,0.0724,0.0605,0.0528,0.0472,0.0537,0.045,0.0394,0.0378,0.0375,0.0421,0.0421,0.0422,0.0422,0.0423,0.0192,0.0246,0.0333,0.0436,0.0534,0.0688,0.078,0.0941,0.1102,0.126,0.1282,0.1259,0.111,0.079,0.0632,0.045,0.0446,0.0364,0.0368,0.0373,0.0364,0.0309,0.0313,0.0313,0.0313,0.0313,0.0313,0,0.0262,0.0328,0.0427,0.0574,0.0695,0.0726,0.0932,0.1026,0.1204,0.1281,0.1335,0.1122,0.0961,0.0778,0.0486,0.0321,0.0318,0.028,0.0317,0.0324,0.0331,0.0321,0.0258,0.0258,0.0258,0.0257,0,0,0.031,0.0418,0.0478,0.0694,0.0789,0.0942,0.104,0.1156,0.1232,0.1255,0.12,0.1163,0.0954,0.0737,0.0548,0.04,0.0394,0.0366,0.0422,0.0495,0.0503,0.0386,0.0379,0,0,0,0,0]}],[{"header":{"parameterUnit":"m.s-1","parameterCategory":2,"la1":30.2991,"la2":30.254,"lo1":-89.0895,"lo2":-89.0444,"dy":0.0017,"dx":0.0017,"nx":28,"ny":28,"refTime":"2025-08-03T09:00:00:Z","depth":"4","parameterNumber":2,"parameterNumberName":"U-component_of_CURRENTS"},"data":[0,0,0,0,0,0,0,0,0,0,0,0,0,0,0,0,0,0,0,0,0,0,0,0,0,0,0,0,0,0,0,0,0,0,0,0,0,0,0,0,0,0,0,0,0,0,0,0,0,0,0,0,0,0,0,0,0,0,0.08,0.08,0,0.0793,0.0793,0.0793,0.0817,0.0818,0.0818,0.0819,0.0815,0.0814,0.0813,0,0,0,0,0,0,0,0,0,0,0,0,0,0.0804,0.0804,0.08,0.08,0.08,0.0793,0.0793,0.0793,0.0817,0.0818,0.0819,0.0819,0.0815,0.0814,0.0813,0,0,0,0,0,0,0,0,0,0,0,0,0,0.0799,0.0803,0.08,0.0812,0.0813,0.0793,0.0793,0.0793,0.0816,0.0818,0.0819,0.082,0.0816,0.0815,0.0813,0.0782,0,0,0.0809,0.0809,0,0,0,0,0,0,0,0,0.0799,0.0799,0.081,0.0811,0.0812,0.0808,0.0793,0.0789,0.0816,0.0814,0.0819,0.082,0.0812,0.0812,0.0807,0.0782,0.0781,0.0809,0.0809,0.0808,0.0808,0,0,0,0,0,0,0,0.08,0.0799,0.0797,0.081,0.0811,0.0807,0.0807,0.0792,0.0806,0.0815,0.0817,0.0816,0.0813,0.0808,0.0807,0.0781,0.0809,0.0808,0.0807,0.0807,0.082,0.0821,0,0,0,0,0,0,0.0802,0.08,0.0797,0.0797,0.0809,0.0806,0.0807,0.0807,0.0807,0.0808,0.0815,0.0817,0.0809,0.0808,0.0807,0.0818,0.0808,0.0807,0.0806,0.0819,0.0821,0.0822,0,0,0,0,0,0,0.0802,0.0802,0.0797,0.0798,0.0798,0.0805,0.0805,0.0807,0.0823,0.0807,0.0809,0.0833,0.081,0.0808,0.0813,0.0816,0.0806,0.0805,0.0818,0.082,0.0821,0.0808,0,0,0,0,0,0,0.0802,0.0802,0.0813,0.0799,0.0798,0.0797,0.0804,0.0806,0.082,0.0823,0.0822,0.0822,0.0811,0.0815,0.0812,0.0814,0.0804,0.0817,0.0819,0.0821,0.0807,0.0809,0.0811,0,0,0,0,0,0.0803,0.0804,0.0813,0.0814,0.0809,0.0797,0.0796,0.0804,0.082,0.0824,0.083,0.0823,0.0827,0.0814,0.0811,0.0812,0.0816,0.0818,0.0821,0.0807,0.0809,0.0811,0,0,0,0,0,0,0.081,0.0806,0.0816,0.0818,0.0816,0.0802,0.0806,0.0814,0.0821,0.0831,0.0824,0.0823,0.0839,0.083,0.0817,0.0828,0.0825,0.0827,0.0816,0.0818,0.082,0.0834,0.0803,0,0,0,0,0,0.0816,0.082,0.0814,0.0818,0.0817,0.0817,0.0819,0.0824,0.0823,0.0829,0.083,0.0836,0.0841,0.0834,0.0841,0.0828,0.0857,0.0834,0.0836,0.0837,0.085,0.0924,0.0934,0.083,0.083,0.083,0,0,0.0817,0.082,0.0821,0.0821,0.082,0.0798,0.0821,0.0824,0.0808,0.0825,0.0818,0.0848,0.0846,0.0845,0.085,0.0836,0.0876,0.0841,0.0841,0.0853,0.0928,0.0938,0.0947,0.0832,0.0831,0.0831,0,0,0.0808,0.0826,0.0819,0.0813,0.0817,0.0806,0.0812,0.0811,0.0818,0.0814,0.0835,0.0874,0.0856,0.0868,0.0865,0.0882,0.0897,0.0885,0.0882,0.0954,0.0963,0.0971,0.0989,0.0999,0.0869,0.0869,0.0869,0,0.0815,0.0794,0.0816,0.0801,0.0786,0.0807,0.078,0.0779,0.0785,0.0805,0.0814,0.0873,0.0867,0.0888,0.0889,0.0885,0.0916,0.0865,0.0956,0.0965,0.0974,0.099,0.1002,0.0868,0.0868,0.0868,0.0868,0,0.0786,0.077,0.0763,0.0744,0.074,0.072,0.0717,0.0731,0.075,0.077,0.0831,0.0856,0.0906,0.09,0.0884,0.0946,0.0943,0.0961,0.0946,0.0983,0.0998,0.101,0.0868,0.0868,0.0868,0.0868,0,0,0.0778,0.0746,0.0743,0.0721,0.0704,0.0695,0.068,0.0684,0.0717,0.0753,0.081,0.0828,0.091,0.0917,0.0939,0.0975,0.1038,0.0985,0.0989,0.0994,0.1168,0.1036,0.1036,0.108,0.1083,0.1085,0.114,0,0.0739,0.0691,0.0688,0.0635,0.0598,0.0617,0.0614,0.0641,0.0681,0.075,0.0821,0.0893,0.0893,0.095,0.099,0.1056,0.1077,0.102,0.1139,0.1142,0.1014,0.1048,0.1094,0.1149,0.1152,0.1154,0.1156,0,0.0684,0.0663,0.0607,0.0582,0.0577,0.0568,0.0598,0.0605,0.0704,0.076,0.0866,0.0943,0.1032,0.1031,0.1151,0.1122,0.1141,0.1167,0.117,0.1065,0.1033,0.1115,0.1178,0.1176,0.1175,0.1173,0.1172,0,0.0631,0.0591,0.0546,0.0531,0.0525,0.0536,0.0552,0.0628,0.0676,0.0803,0.0888,0.1006,0.1112,0.117,0.1215,0.1209,0.1327,0.1331,0.1216,0.1206,0.1314,0.1305,0.1398,0.1398,0.1398,0.1398,0.1398,0,0.0545,0.0506,0.0533,0.0503,0.0508,0.0527,0.0574,0.0617,0.0737,0.0823,0.0925,0.1022,0.1163,0.124,0.1249,0.1264,0.1364,0.1223,0.1223,0.1301,0.129,0.132,0.131,0.14,0.14,0.1399,0.1399,0,0.0451,0.0457,0.0422,0.045,0.0471,0.0487,0.058,0.0631,0.075,0.0871,0.0927,0.1089,0.1187,0.1252,0.1354,0.1313,0.1325,0.1287,0.1334,0.1335,0.1146,0.1135,0.1199,0.1195,0.1191,0.1188,0.1186,0,0.0385,0.0358,0.0398,0.041,0.0422,0.0471,0.0518,0.063,0.0695,0.0891,0.0947,0.1096,0.1178,0.1226,0.1279,0.1277,0.1248,0.1239,0.1214,0.1137,0.1132,0.1126,0.112,0.1181,0.118,0.1179,0.1178,0,0.0277,0.0311,0.0305,0.0344,0.0386,0.0429,0.0505,0.0563,0.0712,0.0829,0.0965,0.103,0.1125,0.1184,0.1177,0.1168,0.125,0.1204,0.1212,0.1188,0.1117,0.1113,0.1111,0.1166,0.1168,0.1169,0.117,0,0.0238,0.0219,0.0247,0.0285,0.0321,0.0369,0.0426,0.0524,0.0621,0.0841,0.0878,0.1012,0.1136,0.1124,0.1114,0.1097,0.1086,0.1052,0.1067,0.108,0.1008,0.0898,0.0888,0,0,0,0,0,0.0206,0.0185,0.0189,0.0226,0.0255,0.0297,0.0404,0.0478,0.064,0.0713,0.0803,0.0875,0.0931,0.0988,0.0945,0.1014,0.1054,0.0954,0.1013,0.1102,0.1115,0.1036,0,0,0,0,0,0,0.0191,0.017,0.017,0.0176,0.0192,0.0238,0.0312,0.0426,0.048,0.0644,0.0683,0.0794,0.085,0.0943,0.0922,0.0929,0.094,0.102,0.1017,0.1094,0.1106,0.1117,0.104,0,0,0,0,0]},{"header":{"parameterUnit":"m.s-1","parameterCategory":2,"la1":30.2991,"la2":30.254,"lo1":-89.0895,"lo2":-89.0444,"dy":0.0017,"dx":0.0017,"nx":28,"ny":28,"refTime":"2025-08-03T09:00:00:Z","depth":"4","parameterNumber":3,"parameterNumberName":"V-component_of_CURRENTS"},"data":[0,0,0,0,0,0,0,0,0,0,0,0,0,0,0,0,0,0,0,0,0,0,0,0,0,0,0,0,0,0,0,0,0,0,0,0,0,0,0,0,0,0,0,0,0,0,0,0,0,0,0,0,0,0,0,0,0,0,0.0038,0.0038,0,0.0032,0.0032,0.0032,0.0032,0.0032,0.0032,0.0032,0.0056,0.0057,0.0057,0,0,0,0,0,0,0,0,0,0,0,0,0,0.0031,0.0031,0.0038,0.0038,0.0039,0.0032,0.0032,0.0032,0.0032,0.0032,0.0032,0.0032,0.0056,0.0057,0.0057,0,0,0,0,0,0,0,0,0,0,0,0,0,0.0029,0.0031,0.0038,0.0039,0.0039,0.0032,0.0032,0.0032,0.0032,0.0032,0.0032,0.0033,0.0056,0.0057,0.0057,0.0056,0,0,0.0059,0.006,0,0,0,0,0,0,0,0,0.003,0.003,0.0038,0.0039,0.0039,0.0034,0.0038,0.0042,0.0032,0.0033,0.0032,0.0033,0.0052,0.0053,0.0049,0.0057,0.0058,0.0059,0.006,0.006,0.006,0,0,0,0,0,0,0,0.003,0.003,0.0035,0.0039,0.0039,0.0032,0.0032,0.0039,0.0041,0.0033,0.0033,0.0034,0.0052,0.0049,0.005,0.0059,0.0059,0.006,0.006,0.0061,0.008,0.008,0,0,0,0,0,0,0.0033,0.003,0.0035,0.0035,0.0036,0.0032,0.0032,0.0034,0.004,0.0041,0.0034,0.0034,0.0047,0.0049,0.0051,0.0075,0.006,0.0061,0.0061,0.008,0.008,0.008,0,0,0,0,0,0,0.0033,0.0034,0.0035,0.0033,0.0033,0.0033,0.0034,0.0034,0.0034,0.0041,0.0042,0.0035,0.0048,0.005,0.006,0.0075,0.0061,0.0062,0.0079,0.008,0.008,0.0106,0,0,0,0,0,0,0.0033,0.0034,0.0036,0.0033,0.0033,0.0037,0.0034,0.0034,0.0035,0.0035,0.0042,0.0044,0.0048,0.0059,0.006,0.0075,0.0062,0.0079,0.008,0.008,0.0105,0.0107,0.0109,0,0,0,0,0,0.0033,0.0036,0.0036,0.0036,0.0036,0.0037,0.0037,0.0036,0.0035,0.0037,0.004,0.0044,0.0061,0.0059,0.0061,0.0077,0.0079,0.008,0.008,0.0104,0.0107,0.0109,0,0,0,0,0,0,0.0032,0.0036,0.0036,0.004,0.0041,0.0038,0.004,0.0038,0.004,0.0041,0.0046,0.0048,0.0061,0.0061,0.006,0.0081,0.0071,0.0071,0.0089,0.0091,0.0093,0.011,0.0063,0,0,0,0,0,0.0033,0.0036,0.0039,0.0041,0.0043,0.0041,0.0041,0.004,0.0042,0.0043,0.005,0.0055,0.0061,0.0071,0.0073,0.0088,0.007,0.0097,0.0099,0.0101,0.0115,0.0085,0.0086,0.008,0.008,0.008,0,0,0.0033,0.0036,0.0037,0.0041,0.0042,0.0058,0.0042,0.0043,0.0061,0.0046,0.007,0.006,0.0064,0.0078,0.0085,0.0084,0.0091,0.0101,0.0103,0.0116,0.0086,0.0086,0.0087,0.008,0.008,0.008,0,0,0.0041,0.0038,0.0049,0.0055,0.006,0.0062,0.0065,0.0066,0.0072,0.0085,0.0079,0.0077,0.0092,0.0097,0.0102,0.0115,0.0097,0.0114,0.0147,0.0117,0.0118,0.0118,0.0087,0.0085,0.0121,0.0121,0.0121,0,0.0041,0.0062,0.0051,0.007,0.0086,0.007,0.0097,0.0098,0.0102,0.0111,0.0099,0.0107,0.0105,0.0127,0.0131,0.0122,0.0098,0.014,0.012,0.012,0.012,0.0088,0.0085,0.0123,0.0122,0.0122,0.0122,0,0.0065,0.0086,0.0094,0.0119,0.013,0.0145,0.0154,0.0161,0.0162,0.0161,0.0171,0.0156,0.0164,0.0157,0.0152,0.0155,0.0135,0.012,0.0116,0.0122,0.0088,0.0084,0.0125,0.0124,0.0124,0.0123,0,0,0.0065,0.0104,0.0111,0.0142,0.0162,0.0176,0.0204,0.0228,0.0246,0.0235,0.0255,0.0251,0.0227,0.023,0.0212,0.019,0.0159,0.0159,0.0157,0.0132,0.0089,0.0088,0.0083,0.0135,0.0134,0.0134,0.0063,0,0.0095,0.0148,0.0159,0.0218,0.0252,0.0257,0.0289,0.0301,0.03,0.0308,0.0283,0.0289,0.026,0.0258,0.0231,0.0177,0.0151,0.018,0.0085,0.0082,0.0083,0.008,0.0133,0.0059,0.0058,0.0058,0.0057,0,0.0128,0.0163,0.0227,0.0288,0.0302,0.0334,0.0379,0.0405,0.0404,0.0399,0.0386,0.0354,0.0332,0.0296,0.0215,0.0232,0.017,0.012,0.0116,0.0109,0.0075,0.0054,0.005,0.005,0.0051,0.0051,0.0052,0,0.0156,0.0217,0.0275,0.0295,0.0351,0.0385,0.0418,0.0434,0.0461,0.0455,0.0453,0.0412,0.0395,0.0312,0.0207,0.021,0.0098,0.0087,0.0029,0.0027,0.0037,0.0038,0.0028,0.0028,0.0028,0.0028,0.0029,0,0.02,0.0246,0.0295,0.0331,0.0396,0.0426,0.0488,0.0504,0.0526,0.0548,0.0504,0.0493,0.0396,0.0315,0.0216,0.0108,0.0103,0.0039,0.0012,0.0048,0.0051,0.0034,0.0035,0.0026,0.0026,0.0027,0.0027,0,0.0228,0.0262,0.0328,0.0392,0.0416,0.0465,0.0539,0.0578,0.0591,0.0615,0.0615,0.0557,0.0456,0.0337,0.0198,0.0133,0.0019,-0.0022,0.0022,-0.0003,-0.0033,-0.0029,-0.0076,-0.0077,-0.0077,-0.0078,-0.0078,0,0.0245,0.0282,0.0362,0.04,0.0435,0.0508,0.056,0.0608,0.0641,0.0643,0.0648,0.0571,0.051,0.0312,0.019,0.0011,-0.0014,-0.0062,-0.0035,-0.002,-0.0042,-0.0038,-0.0034,-0.0079,-0.0079,-0.0079,-0.0079,0,0.0268,0.0296,0.0348,0.0423,0.0488,0.056,0.0631,0.0653,0.0698,0.0712,0.067,0.0576,0.0463,0.0314,0.0175,0.0044,-0.0022,-0.0067,-0.0066,-0.0041,-0.0024,-0.0044,-0.004,-0.0081,-0.0081,-0.008,-0.008,0,0.0267,0.0306,0.0368,0.0441,0.051,0.0575,0.0623,0.0661,0.0698,0.0699,0.0679,0.056,0.0505,0.0329,0.019,0.0073,0.0055,0.0033,0.0028,0.0028,0.0082,0.012,0.009,0,0,0,0,0,0.0265,0.0315,0.0378,0.0458,0.0526,0.0572,0.0647,0.0688,0.0721,0.07,0.0694,0.0583,0.0409,0.0328,0.021,0.0176,0.0026,0.0036,-0.0005,-0.009,-0.0088,-0.0042,0,0,0,0,0,0,0.026,0.0322,0.0372,0.045,0.0501,0.0585,0.0632,0.0668,0.0654,0.0665,0.0565,0.0559,0.0375,0.0465,0.0205,0.0172,0.0134,-0.0037,-0.0039,-0.0091,-0.0089,-0.0087,-0.004,0,0,0,0,0]}]]